Regional Weather Roundup
Issued by NWS Upton, NY

Current Version | Previous Version | Graphics & Text | Print | Product List | Glossary Off
Versions: 1 2 3 4 5 6 7 8 9 10 11 12 13 14 15 16 17 18 19 20 21 22 23 24 25 26 27 28 29 30 31 32 33 34 35 36 37 38 39 40 41 42 43 44 45 46 47 48 49 50

000
ASUS41 KOKX 251305
RWROKX

REGIONAL WEATHER ROUNDUP
NATIONAL WEATHER SERVICE NEW YORK NY
800 AM EST SUN JAN 25 2015

NOTE: "FAIR" INDICATES FEW OR NO CLOUDS BELOW 12,000 FEET WITH NO
SIGNIFICANT WEATHER AND/OR OBSTRUCTIONS TO VISIBILITY.

NYZ071-072-176-178-NJZ106-104-251400-
NEW YORK CITY METRO AREA


CITY           SKY/WX    TMP DP  RH WIND       PRES   REMARKS
CENTRAL PARK   CLOUDY    36  25  64 SW8G26    29.70R WCI  30
LAGUARDIA APRT MOCLDY    36  26  67 SW13G22   29.69R WCI  27
KENNEDY INTL   MOCLDY    36  28  73 SW17      29.71R WCI  26
NEWARK/LIBERTY MOCLDY    34  28  79 SW9       29.70R WCI  27
BRNX BOT. GARD   N/A    N/A N/A N/A W14       29.69R
TETERBORO      CLOUDY    34  26  72 SW7       29.68R WCI  28
$$

NYZ177-179-078>081-251400-
LONG ISLAND NEW YORK

CITY           SKY/WX    TMP DP  RH WIND       PRES   REMARKS
FARMINGDALE    CLOUDY    35  27  72 W16G22    29.68R WCI  25
ISLIP          MOCLDY    34  26  72 W14       29.66R WCI  25
SHIRLEY        CLOUDY    34  26  72 W9        29.67R WCI  27
WESTHAMPTON    CLOUDY    34  26  72 W13       29.67R WCI  25
MONTAUK POINT    N/A     37  28  70 W12G21    29.62R WCI  29
$$

NYZ052-065-067-251400-
HUDSON VALLEY

CITY           SKY/WX    TMP DP  RH WIND       PRES   REMARKS
WHITE PLAINS   PTCLDY    34  25  69 VRB6      29.64R WCI  29
NEWBURGH       MOCLDY    34  27  75 MISG      29.62R
MONTGOMERY     CLOUDY    36  24  62 W8        29.62R WCI  30
POUGHKEEPSIE   MOCLDY    35  26  69 SW8       29.61R WCI  29
ALBANY         MOCLDY    32  17  54 NW15G30   29.62R WCI  22
$$

NJZ001-105-106-008-010-013-015-019>022-104-251400-
NEW JERSEY

CITY           SKY/WX    TMP DP  RH WIND       PRES   REMARKS
NEWARK/LIBERTY MOCLDY    34  28  79 SW9       29.70R WCI  27
TETERBORO      CLOUDY    34  26  72 SW7       29.68R WCI  28
CALDWELL       CLOUDY    34  26  72 VRB6      29.69R WCI  29
MORRISTOWN     CLOUDY    36  27  69 SW9       29.69R WCI  29
SOMERVILLE     PTCLDY    35  26  69 MISG      29.69R
SUSSEX         MOCLDY    33  25  72 VRB6      29.66R WCI  28
ANDOVER          N/A     32  26  78 S3        29.67R
TRENTON        MOCLDY    35  26  69 SW5       29.73R WCI  31
MILLVILLE      MOCLDY    36  29  75 W10       29.80R WCI  28
ATLANTIC CITY  CLOUDY    35  28  75 W10       29.79R WCI  27
WRIGHTSTOWN    PTCLDY    35  28  76 W10       29.72R WCI  27
TOMS RIVER     CLOUDY    32  28  86 SW5       29.74R WCI  27
BELMAR         CLOUDY    34  25  69 W8        29.72R WCI  27
$$

PAZ047>061-062-071-251400-
EASTERN PENNSYLVANIA

CITY           SKY/WX    TMP DP  RH WIND       PRES   REMARKS
PHILADELPHIA   MOCLDY    37  28  70 SW18      29.78R WCI  27
ALLENTOWN      CLOUDY    36  27  69 SW13      29.71R WCI  27
SCRANTON       CLOUDY    33  26  75 W7        29.68R WCI  27
$$

CTZ002-004>006-009-010-012-RIZ004-006-007-MAZ004-011-015-251400-
SOUTHERN NEW ENGLAND
 IN CT

CITY           SKY/WX    TMP DP  RH WIND       PRES   REMARKS
BRADLEY INTL   MOCLDY    34  25  69 SW12      29.57R WCI  25
HARTFORD       CLOUDY    33  26  75 SW10      29.60R WCI  25
DANBURY        CLOUDY    33  24  69 SW10      29.62R WCI  25
WTRBRY/OXFORD  CLOUDY    32  21  64 SW7       29.58R WCI  26
BRIDGEPORT     CLOUDY    35  29  78 SW17      29.64R WCI  25
MERIDEN        CLOUDY    34  25  69 VRB5      29.61R WCI  30
NEW HAVEN      MOCLDY    36  28  73 SW12G22   29.62R WCI  28
CHESTER        CLOUDY    32  28  86 W7        29.60R WCI  26
GROTON         CLOUDY    34  28  79 W12       29.61R WCI  25
WILLIMANTIC    CLOUDY    33  25  72 SW7       29.58R WCI  27

 IN RI

CITY           SKY/WX    TMP DP  RH WIND       PRES   REMARKS
PROVIDENCE     MOCLDY    32  26  78 W10       29.58R WCI  24
BLOCK ISLAND   CLEAR     37  27  65 W22G31    29.59R WCI  27
WESTERLY       CLOUDY    34  26  72 W7        29.61R WCI  28

 IN MA

CITY           SKY/WX    TMP DP  RH WIND       PRES   REMARKS
BOSTON         NOT AVBL
WORCESTER      CLOUDY    29  26  89 SW14G22   29.48R WCI  18
WESTFIELD      CLOUDY    32  26  78 CALM      29.56R
PROVINCETOWN   NOT AVBL
NANTUCKET      CLOUDY    36  28  73 W21       29.57R WCI  25
$$

ANZ330-335-338-340-345-350-353-355-251400-
COASTAL MARINE OBSERVATIONS


STATION/POSITION TIME  SKY/WX   TEMP    WIND        PRES    VSBY  WAVE
                                AIR SEA DIR/SP/G                  HT/PER
                 (UTC)          (F)     (DEG/KT/KT) (MB)    (MI)  (FT/S)
NY HARB ENTRANCE 1300            38 42  250/ 21/ 27 1005.3          4/11
4S FIRE IS       1300               39                N/A           6/13
20S FIRE ISLAND  1200               42              1004.5          9/ 6
23SW MTP         1300                                 N/A           9/11
HUDSON CANYON    NOT AVBL
EXECUTION ROCKS  1300            36 35  240/ 17/ 21   N/A
WESTERN LI SOUND 1300            37     240/ 17/ 21   N/A           1/ 3
CENTRAL LI SOUND 1200            36 36  240/ 21/ 29   N/A           4/ 4
EASTERN LI SOUND NOT AVBL
ROBBINS REEF     1300            35     240/ 13/ 18 1004.4
$$


>>>>>>>>>>>>>>>>>>>>>>>>>>>> KEY <<<<<<<<<<<<<<<<<<<<<<<<<<<
>                                                          <
>     SKY/WX - SKY CONDITION/PRESENT WEATHER               <
>     TMP    - TEMPERATURE IN FAHRENHEIT                   <
>     DP     - DEWPOINT IN FAHRENHEIT                      <
>     RH     - RELATIVE HUMIDITY IN PERCENT                <
>     WIND   - DIRECTION AND SPEED IN MPH                  <
>     PRES   - MEAN SEA LEVEL PRESSURE IN INCHES OF HG     <
>     WCI    - WIND CHILL INDEX                            <
>     VSB    - VISIBILITY IN MILES                         <
>     HX     - HEAT INDEX                                  <
>     TC     - TEMPERATURE IN CELSIUS                      <
>     VRB    - VARIABLE WIND DIRECTION                     <
>                                                          <
>>>>>>>>>>>>>>>>>>>>>>>>>>>> KEY <<<<<<<<<<<<<<<<<<<<<<<<<<<




USA.gov is the U.S. government's official web portal to all federal, state and local government web resources and services.